"read_dt","SO2 (ppb)","flags","PMT voltage (V)","lamp voltage (V)","lamp intensity (Hz)","internal temp (C)","react chamber temp (C)","sample flow (l/min)","pres (mmHg)","SO2 bkg (ppb)","SO2 coefficient"
2016-04-28 00:00:00,1856E-3,5C000400,-0724,0835,12152,028.7,045.5,0.254,757.9,01.16,0.508
2016-04-28 00:01:00,1954E-3,5C000400,-0724,0836,11988,028.7,045.5,0.254,757.9,01.16,0.508
2016-04-28 00:02:00,1913E-3,5C000400,-0724,0836,12181,028.8,045.4,0.253,757.8,01.16,0.508
2016-04-28 00:03:00,1870E-3,5C000400,-0724,0835,12051,028.7,045.5,0.254,757.9,01.16,0.508
2016-04-28 00:04:00,1969E-3,5C000400,-0724,0835,12043,028.8,045.5,0.254,757.8,01.16,0.508
2016-04-28 00:05:00,1831E-3,5C000400,-0724,0836,12004,028.8,045.5,0.253,757.8,01.16,0.508
2016-04-28 00:06:00,1787E-3,5C000400,-0724,0836,12123,028.7,045.5,0.254,757.8,01.16,0.508
2016-04-28 00:07:00,2045E-3,5C000400,-0724,0835,12069,028.8,045.5,0.254,757.9,01.16,0.508
2016-04-28 00:08:00,2005E-3,5C000400,-0724,0835,12086,028.7,045.5,0.254,757.8,01.16,0.508
2016-04-28 00:09:00,1834E-3,5C000400,-0724,0834,12143,028.7,045.5,0.254,757.8,01.16,0.508
2016-04-28 00:10:00,1955E-3,5C000400,-0724,0835,12056,028.7,045.4,0.254,757.8,01.16,0.508
2016-04-28 00:11:00,1902E-3,5C000400,-0724,0835,12073,028.7,045.4,0.254,757.8,01.16,0.508
2016-04-28 00:12:00,2021E-3,5C000400,-0724,0835,12077,028.7,045.4,0.253,757.8,01.16,0.508
2016-04-28 00:13:00,1911E-3,5C000400,-0724,0836,12104,028.7,045.5,0.254,757.8,01.16,0.508
2016-04-28 00:14:00,1883E-3,5C000400,-0724,0835,12219,028.7,045.5,0.254,757.8,01.16,0.508
2016-04-28 00:15:00,1788E-3,5C000400,-0724,0835,12131,028.7,045.5,0.253,757.8,01.16,0.508
2016-04-28 00:16:00,1988E-3,5C000400,-0724,0836,12139,028.7,045.5,0.254,757.8,01.16,0.508
2016-04-28 00:17:00,2014E-3,5C000400,-0724,0835,12066,028.7,045.5,0.254,757.8,01.16,0.508
2016-04-28 00:18:00,1988E-3,5C000400,-0724,0835,12055,028.7,045.5,0.253,757.8,01.16,0.508
2016-04-28 00:19:00,1888E-3,5C000400,-0724,0836,12168,028.7,045.5,0.254,757.8,01.16,0.508
2016-04-28 00:20:00,2006E-3,5C000400,-0724,0836,12118,028.7,045.5,0.254,757.8,01.16,0.508
2016-04-28 00:21:00,2076E-3,5C000400,-0724,0835,12109,028.7,045.5,0.253,757.8,01.16,0.508
2016-04-28 00:22:00,1994E-3,5C000400,-0724,0836,12078,028.7,045.5,0.254,757.8,01.16,0.508
2016-04-28 00:23:00,2017E-3,5C000400,-0724,0836,12223,028.7,045.5,0.254,757.8,01.16,0.508
2016-04-28 00:24:00,1926E-3,5C000400,-0724,0835,12090,028.7,045.5,0.253,757.9,01.16,0.508
2016-04-28 00:25:00,1866E-3,5C000400,-0724,0835,12143,028.7,045.5,0.254,757.8,01.16,0.508
2016-04-28 00:26:00,1930E-3,5C000400,-0724,0835,12091,028.7,045.5,0.254,757.8,01.16,0.508
2016-04-28 00:27:00,2020E-3,5C000400,-0724,0835,12188,028.7,045.5,0.253,757.8,01.16,0.508
2016-04-28 00:28:00,1957E-3,5C000400,-0724,0835,12151,028.7,045.5,0.254,757.8,01.16,0.508
2016-04-28 00:29:00,1931E-3,5C000400,-0724,0836,12103,028.7,045.4,0.254,757.8,01.16,0.508
2016-04-28 00:30:00,2027E-3,5C000400,-0724,0836,12168,028.7,045.5,0.254,757.8,01.16,0.508
2016-04-28 00:31:00,2031E-3,5C000400,-0724,0836,12143,028.8,045.5,0.254,757.8,01.16,0.508
2016-04-28 00:32:00,1981E-3,5C000400,-0724,0836,12072,028.7,045.5,0.254,757.7,01.16,0.508
2016-04-28 00:33:00,1941E-3,5C000400,-0724,0836,12161,028.7,045.4,0.254,757.7,01.16,0.508
2016-04-28 00:34:00,1858E-3,5C000400,-0724,0836,12228,028.8,045.5,0.254,757.7,01.16,0.508
2016-04-28 00:35:00,1968E-3,5C000400,-0724,0836,12154,028.7,045.5,0.254,757.8,01.16,0.508
2016-04-28 00:36:00,1865E-3,5C000400,-0724,0836,11950,028.7,045.5,0.254,757.8,01.16,0.508
2016-04-28 00:37:00,1883E-3,5C000400,-0724,0835,12178,028.7,045.4,0.254,757.8,01.16,0.508
2016-04-28 00:38:00,1984E-3,5C000400,-0724,0836,12189,028.7,045.5,0.254,757.8,01.16,0.508
2016-04-28 00:39:00,2000E-3,5C000400,-0724,0835,12258,028.7,045.5,0.254,757.8,01.16,0.508
2016-04-28 00:40:00,1893E-3,5C000400,-0724,0836,12027,028.7,045.5,0.254,757.8,01.16,0.508
2016-04-28 00:41:00,1813E-3,5C000400,-0724,0836,12197,028.7,045.5,0.254,757.8,01.16,0.508
2016-04-28 00:42:00,1927E-3,5C000400,-0724,0836,12042,028.8,045.5,0.254,757.7,01.16,0.508
2016-04-28 00:43:00,2046E-3,5C000400,-0724,0836,12112,028.8,045.5,0.254,757.8,01.16,0.508
2016-04-28 00:44:00,2007E-3,5C000400,-0724,0836,12141,028.8,045.5,0.254,757.7,01.16,0.508
2016-04-28 00:45:00,1971E-3,5C000400,-0724,0835,12225,028.7,045.4,0.253,757.7,01.16,0.508
2016-04-28 00:46:00,1836E-3,5C000400,-0724,0836,12076,028.7,045.4,0.254,757.8,01.16,0.508
2016-04-28 00:47:00,1894E-3,5C000400,-0724,0836,12202,028.8,045.4,0.254,757.7,01.16,0.508
2016-04-28 00:48:00,2033E-3,5C000400,-0724,0835,12275,028.7,045.5,0.254,757.7,01.16,0.508
2016-04-28 00:49:00,2034E-3,5C000400,-0724,0835,12209,028.8,045.5,0.254,757.7,01.16,0.508
2016-04-28 00:50:00,1938E-3,5C000400,-0724,0836,12163,028.7,045.4,0.254,757.7,01.16,0.508
2016-04-28 00:51:00,1987E-3,5C000400,-0724,0835,11938,028.7,045.5,0.254,757.7,01.16,0.508
2016-04-28 00:52:00,2029E-3,5C000400,-0724,0836,12100,028.7,045.5,0.254,757.7,01.16,0.508
2016-04-28 00:53:00,2003E-3,5C000400,-0724,0836,12019,028.7,045.5,0.253,757.7,01.16,0.508
2016-04-28 00:54:00,1865E-3,5C000400,-0724,0835,12061,028.8,045.5,0.254,757.7,01.16,0.508
2016-04-28 00:55:00,1893E-3,5C000400,-0724,0836,12129,028.8,045.5,0.254,757.7,01.16,0.508
2016-04-28 00:56:00,1965E-3,5C000400,-0724,0836,12144,028.7,045.5,0.254,757.7,01.16,0.508
2016-04-28 00:57:00,1916E-3,5C000400,-0724,0835,12070,028.7,045.5,0.254,757.6,01.16,0.508
2016-04-28 00:58:00,1954E-3,5C000400,-0724,0836,12252,028.7,045.5,0.254,757.6,01.16,0.508
2016-04-28 00:59:00,1974E-3,5C000400,-0724,0835,12055,028.7,045.4,0.254,757.7,01.16,0.508
2016-04-28 01:00:00,2029E-3,5C000400,-0724,0835,12114,028.7,045.4,0.254,757.6,01.16,0.508
2016-04-28 01:01:00,1909E-3,5C000400,-0724,0835,12219,028.7,045.5,0.254,757.6,01.16,0.508
2016-04-28 01:02:00,2018E-3,5C000400,-0724,0836,12155,028.8,045.5,0.254,757.6,01.16,0.508
2016-04-28 01:03:00,1829E-3,5C000400,-0724,0835,12231,028.7,045.4,0.254,757.6,01.16,0.508
2016-04-28 01:04:00,1837E-3,5C000400,-0724,0836,12027,028.7,045.5,0.254,757.6,01.16,0.508
2016-04-28 01:05:00,1979E-3,5C000400,-0724,0836,12032,028.7,045.5,0.254,757.6,01.16,0.508
2016-04-28 01:06:00,2010E-3,5C000400,-0724,0834,12254,028.7,045.5,0.254,757.6,01.16,0.508
2016-04-28 01:07:00,1964E-3,5C000400,-0724,0835,12131,028.7,045.5,0.254,757.6,01.16,0.508
2016-04-28 01:08:00,1964E-3,5C000400,-0724,0835,12069,028.7,045.5,0.254,757.6,01.16,0.508
2016-04-28 01:09:00,1890E-3,5C000400,-0724,0836,12175,028.8,045.5,0.254,757.6,01.16,0.508
2016-04-28 01:10:00,1951E-3,5C000400,-0724,0836,12208,028.7,045.5,0.254,757.6,01.16,0.508
2016-04-28 01:11:00,1894E-3,5C000400,-0724,0835,12226,028.7,045.5,0.254,757.6,01.16,0.508
2016-04-28 01:12:00,1941E-3,5C000400,-0724,0836,11969,028.7,045.5,0.254,757.6,01.16,0.508
2016-04-28 01:13:00,2048E-3,5C000400,-0724,0836,12191,028.7,045.5,0.253,757.6,01.16,0.508
2016-04-28 01:14:00,1903E-3,5C000400,-0724,0835,12003,028.7,045.4,0.254,757.6,01.16,0.508
2016-04-28 01:15:00,1889E-3,5C000400,-0724,0835,12217,028.7,045.5,0.254,757.6,01.16,0.508
2016-04-28 01:16:00,2043E-3,5C000400,-0724,0835,12177,028.7,045.5,0.253,757.6,01.16,0.508
2016-04-28 01:17:00,1931E-3,5C000400,-0724,0835,12084,028.7,045.5,0.254,757.6,01.16,0.508
2016-04-28 01:18:00,1937E-3,5C000400,-0724,0835,11955,028.7,045.5,0.254,757.6,01.16,0.508
2016-04-28 01:19:00,1961E-3,5C000400,-0724,0835,12078,028.7,045.5,0.254,757.6,01.16,0.508
2016-04-28 01:20:00,2081E-3,5C000400,-0724,0835,12013,028.7,045.5,0.254,757.6,01.16,0.508
2016-04-28 01:21:00,1812E-3,5C000400,-0724,0834,12096,028.7,045.5,0.254,757.6,01.16,0.508
2016-04-28 01:22:00,2021E-3,5C000400,-0724,0836,11923,028.7,045.5,0.254,757.6,01.16,0.508
2016-04-28 01:23:00,1897E-3,5C000400,-0724,0835,12333,028.7,045.5,0.254,757.5,01.16,0.508
2016-04-28 01:24:00,1974E-3,5C000400,-0724,0835,12130,028.7,045.4,0.254,757.5,01.16,0.508
2016-04-28 01:25:00,1928E-3,5C000400,-0724,0836,12153,028.7,045.5,0.254,757.5,01.16,0.508
2016-04-28 01:26:00,1986E-3,5C000400,-0724,0835,12100,028.7,045.5,0.254,757.5,01.16,0.508
2016-04-28 01:27:00,1970E-3,5C000400,-0724,0835,12175,028.7,045.5,0.253,757.5,01.16,0.508
2016-04-28 01:28:00,2020E-3,5C000400,-0724,0836,12296,028.7,045.4,0.254,757.5,01.16,0.508
2016-04-28 01:29:00,1892E-3,5C000400,-0724,0835,12064,028.7,045.4,0.254,757.5,01.16,0.508
2016-04-28 01:30:00,2082E-3,5C000400,-0724,0836,12068,028.7,045.5,0.253,757.5,01.16,0.508
2016-04-28 01:31:00,1872E-3,5C000400,-0724,0836,12284,028.7,045.5,0.254,757.4,01.16,0.508
2016-04-28 01:32:00,1944E-3,5C000400,-0724,0835,12052,028.7,045.5,0.254,757.4,01.16,0.508
2016-04-28 01:33:00,1972E-3,5C000400,-0724,0836,12159,028.7,045.5,0.254,757.4,01.16,0.508
2016-04-28 01:34:00,2022E-3,5C000400,-0724,0836,12179,028.7,045.5,0.254,757.5,01.16,0.508
2016-04-28 01:35:00,1948E-3,5C000400,-0724,0836,12173,028.7,045.4,0.254,757.4,01.16,0.508
2016-04-28 01:36:00,2039E-3,5C000400,-0724,0836,12142,028.7,045.5,0.254,757.4,01.16,0.508
2016-04-28 01:37:00,1897E-3,5C000400,-0724,0835,12145,028.7,045.5,0.254,757.4,01.16,0.508
2016-04-28 01:38:00,1841E-3,5C000400,-0724,0836,12137,028.7,045.5,0.254,757.4,01.16,0.508
2016-04-28 01:39:00,1900E-3,5C000400,-0724,0835,12139,028.7,045.5,0.254,757.4,01.16,0.508
2016-04-28 01:40:00,1951E-3,5C000400,-0724,0835,12032,028.7,045.5,0.254,757.4,01.16,0.508
2016-04-28 01:41:00,2040E-3,5C000400,-0724,0836,12205,028.7,045.5,0.254,757.4,01.16,0.508
2016-04-28 01:42:00,1943E-3,5C000400,-0724,0835,12126,028.7,045.5,0.254,757.4,01.16,0.508
2016-04-28 01:43:00,2003E-3,5C000400,-0724,0835,12058,028.7,045.5,0.254,757.4,01.16,0.508
2016-04-28 01:44:00,1870E-3,5C000400,-0724,0834,12177,028.7,045.5,0.254,757.3,01.16,0.508
2016-04-28 01:45:00,1841E-3,5C000400,-0724,0835,12184,028.7,045.5,0.254,757.4,01.16,0.508
2016-04-28 01:46:00,1954E-3,5C000400,-0724,0835,11994,028.7,045.5,0.254,757.4,01.16,0.508
2016-04-28 01:47:00,1941E-3,5C000400,-0724,0835,12226,028.7,045.4,0.253,757.3,01.16,0.508
2016-04-28 01:48:00,1981E-3,5C000400,-0724,0835,12115,028.7,045.5,0.254,757.3,01.16,0.508
2016-04-28 01:49:00,1916E-3,5C000400,-0724,0836,12199,028.7,045.5,0.254,757.3,01.16,0.508
2016-04-28 01:50:00,2024E-3,5C000400,-0724,0835,12125,028.7,045.5,0.253,757.3,01.16,0.508
2016-04-28 01:51:00,1982E-3,5C000400,-0724,0835,12125,028.7,045.5,0.254,757.3,01.16,0.508
2016-04-28 01:52:00,1985E-3,5C000400,-0724,0836,12221,028.7,045.5,0.254,757.3,01.16,0.508
2016-04-28 01:53:00,1951E-3,5C000400,-0724,0835,12221,028.7,045.4,0.253,757.3,01.16,0.508
2016-04-28 01:54:00,1992E-3,5C000400,-0724,0835,12240,028.7,045.4,0.254,757.3,01.16,0.508
2016-04-28 01:55:00,1736E-3,5C000400,-0724,0835,12145,028.8,045.5,0.254,757.3,01.16,0.508
2016-04-28 01:56:00,1989E-3,5C000400,-0724,0836,12202,028.7,045.5,0.254,757.3,01.16,0.508
2016-04-28 01:57:00,1911E-3,5C000400,-0724,0836,12256,028.7,045.5,0.254,757.2,01.16,0.508
2016-04-28 01:58:00,2000E-3,5C000400,-0724,0835,12089,028.7,045.4,0.254,757.2,01.16,0.508
2016-04-28 01:59:00,1937E-3,5C000400,-0724,0835,12115,028.7,045.5,0.254,757.2,01.16,0.508
2016-04-28 02:00:00,1999E-3,5C000400,-0724,0836,12117,028.7,045.4,0.254,757.2,01.16,0.508
2016-04-28 02:01:00,1807E-3,5C000400,-0724,0835,12220,028.7,045.4,0.254,757.2,01.16,0.508
2016-04-28 02:02:00,1939E-3,5C000400,-0724,0835,12126,028.8,045.5,0.254,757.2,01.16,0.508
2016-04-28 02:03:00,1983E-3,5C000400,-0724,0834,11991,028.7,045.5,0.254,757.2,01.16,0.508
2016-04-28 02:04:00,1938E-3,5C000400,-0724,0835,12175,028.7,045.5,0.253,757.2,01.16,0.508
2016-04-28 02:05:00,1779E-3,5C000400,-0724,0835,12165,028.7,045.5,0.254,757.2,01.16,0.508
2016-04-28 02:06:00,1895E-3,5C000400,-0724,0835,12117,028.7,045.5,0.254,757.2,01.16,0.508
2016-04-28 02:07:00,1927E-3,5C000400,-0724,0836,12216,028.7,045.5,0.253,757.2,01.16,0.508
2016-04-28 02:08:00,2011E-3,5C000400,-0724,0835,12053,028.7,045.5,0.254,757.2,01.16,0.508
2016-04-28 02:09:00,1922E-3,5C000400,-0724,0835,12051,028.8,045.5,0.254,757.1,01.16,0.508
2016-04-28 02:10:00,1989E-3,5C000400,-0724,0835,12160,028.7,045.5,0.254,757.1,01.16,0.508
2016-04-28 02:11:00,2012E-3,5C000400,-0724,0834,12218,028.7,045.5,0.254,757.2,01.16,0.508
2016-04-28 02:12:00,1827E-3,5C000400,-0724,0835,12169,028.7,045.5,0.254,757.2,01.16,0.508
2016-04-28 02:13:00,1995E-3,5C000400,-0724,0835,12180,028.7,045.5,0.254,757.2,01.16,0.508
2016-04-28 02:14:00,2009E-3,5C000400,-0724,0835,12169,028.7,045.4,0.254,757.2,01.16,0.508
2016-04-28 02:15:00,1890E-3,5C000400,-0724,0834,12202,028.7,045.5,0.254,757.2,01.16,0.508
2016-04-28 02:16:00,1968E-3,5C000400,-0724,0835,12206,028.7,045.5,0.254,757.2,01.16,0.508
2016-04-28 02:17:00,2019E-3,5C000400,-0724,0835,12050,028.7,045.5,0.253,757.2,01.16,0.508
2016-04-28 02:18:00,2081E-3,5C000400,-0724,0835,12246,028.7,045.5,0.254,757.2,01.16,0.508
2016-04-28 02:19:00,1941E-3,5C000400,-0724,0835,12197,028.7,045.5,0.254,757.1,01.16,0.508
2016-04-28 02:20:00,1816E-3,5C000400,-0724,0835,12168,028.7,045.5,0.253,757.1,01.16,0.508
2016-04-28 02:21:00,1997E-3,5C000400,-0724,0836,12216,028.7,045.4,0.254,757.1,01.16,0.508
2016-04-28 02:22:00,1878E-3,5C000400,-0724,0835,12176,028.7,045.4,0.254,757.1,01.16,0.508
2016-04-28 02:23:00,2115E-3,5C000400,-0724,0835,12218,028.7,045.4,0.253,757.1,01.16,0.508
2016-04-28 02:24:00,1835E-3,5C000400,-0724,0836,12094,028.7,045.4,0.254,757.1,01.16,0.508
2016-04-28 02:25:00,1993E-3,5C000400,-0724,0836,12188,028.7,045.5,0.254,757.1,01.16,0.508
2016-04-28 02:26:00,1969E-3,5C000400,-0724,0836,12190,028.7,045.5,0.253,757.1,01.16,0.508
2016-04-28 02:27:00,2050E-3,5C000400,-0724,0835,12024,028.7,045.4,0.254,757.1,01.16,0.508
2016-04-28 02:28:00,1847E-3,5C000400,-0724,0836,12241,028.7,045.5,0.254,757.1,01.16,0.508
2016-04-28 02:29:00,2102E-3,5C000400,-0724,0835,11994,028.7,045.4,0.253,757.1,01.16,0.508
2016-04-28 02:30:00,1862E-3,5C000400,-0724,0836,12065,028.7,045.5,0.254,757.1,01.16,0.508
2016-04-28 02:31:00,1967E-3,5C000400,-0724,0835,12068,028.7,045.5,0.254,757.1,01.16,0.508
2016-04-28 02:32:00,1943E-3,5C000400,-0724,0835,12086,028.7,045.5,0.253,757.1,01.16,0.508
2016-04-28 02:33:00,2039E-3,5C000400,-0724,0835,12083,028.7,045.5,0.254,757.1,01.16,0.508
2016-04-28 02:34:00,1996E-3,5C000400,-0724,0835,11968,028.7,045.5,0.254,757.0,01.16,0.508
2016-04-28 02:35:00,1891E-3,5C000400,-0724,0835,12087,028.7,045.5,0.253,757.0,01.16,0.508
2016-04-28 02:36:00,2027E-3,5C000400,-0724,0835,12055,028.7,045.4,0.254,757.0,01.16,0.508
2016-04-28 02:37:00,2110E-3,5C000400,-0724,0835,12082,028.8,045.4,0.254,757.0,01.16,0.508
2016-04-28 02:38:00,2049E-3,5C000400,-0724,0835,12173,028.7,045.5,0.253,757.0,01.16,0.508
2016-04-28 02:39:00,1871E-3,5C000400,-0724,0835,12198,028.7,045.5,0.254,757.0,01.16,0.508
2016-04-28 02:40:00,1947E-3,5C000400,-0724,0835,12165,028.8,045.5,0.254,757.0,01.16,0.508
2016-04-28 02:41:00,2013E-3,5C000400,-0724,0836,12138,028.7,045.5,0.254,757.0,01.16,0.508
2016-04-28 02:42:00,2181E-3,5C000400,-0724,0836,12119,028.7,045.4,0.254,757.0,01.16,0.508
2016-04-28 02:43:00,1887E-3,5C000400,-0724,0834,12217,028.7,045.5,0.254,757.0,01.16,0.508
2016-04-28 02:44:00,1947E-3,5C000400,-0724,0835,12249,028.8,045.4,0.254,757.0,01.16,0.508
2016-04-28 02:45:00,1948E-3,5C000400,-0724,0835,12078,028.8,045.5,0.254,757.0,01.16,0.508
2016-04-28 02:46:00,1883E-3,5C000400,-0724,0834,12225,028.7,045.5,0.254,757.0,01.16,0.508
2016-04-28 02:47:00,1866E-3,5C000400,-0724,0835,12077,028.8,045.5,0.254,756.9,01.16,0.508
2016-04-28 02:48:00,1948E-3,5C000400,-0724,0835,12069,028.7,045.5,0.254,756.9,01.16,0.508
2016-04-28 02:49:00,1936E-3,5C000400,-0724,0836,12143,028.7,045.5,0.253,756.9,01.16,0.508
2016-04-28 02:50:00,2037E-3,5C000400,-0724,0836,12022,028.7,045.4,0.254,756.9,01.16,0.508
2016-04-28 02:51:00,1947E-3,5C000400,-0724,0836,12201,028.7,045.4,0.254,756.8,01.16,0.508
2016-04-28 02:52:00,1902E-3,5C000400,-0724,0835,12087,028.7,045.5,0.253,756.8,01.16,0.508
2016-04-28 02:53:00,1881E-3,5C000400,-0724,0835,12186,028.8,045.5,0.254,756.8,01.16,0.508
2016-04-28 02:54:00,2077E-3,5C000400,-0724,0836,12091,028.7,045.5,0.254,756.8,01.16,0.508
2016-04-28 02:55:00,1961E-3,5C000400,-0724,0835,12143,028.8,045.4,0.254,756.8,01.16,0.508
2016-04-28 02:56:00,1788E-3,5C000400,-0724,0835,12103,028.8,045.5,0.254,756.8,01.16,0.508
2016-04-28 02:57:00,1867E-3,5C000400,-0724,0836,12045,028.8,045.5,0.254,756.8,01.16,0.508
2016-04-28 02:58:00,1821E-3,5C000400,-0724,0836,12173,028.7,045.5,0.254,756.8,01.16,0.508
2016-04-28 02:59:00,1977E-3,5C000400,-0724,0835,12135,028.7,045.5,0.254,756.8,01.16,0.508
2016-04-28 03:00:00,1908E-3,5C000400,-0724,0835,12011,028.7,045.5,0.254,756.8,01.16,0.508
2016-04-28 03:01:00,1962E-3,5C000400,-0724,0835,12086,028.7,045.5,0.254,756.8,01.16,0.508
2016-04-28 03:02:00,2097E-3,5C000400,-0724,0835,12179,028.8,045.4,0.254,756.8,01.16,0.508
2016-04-28 03:03:00,1936E-3,5C000400,-0724,0836,12117,028.8,045.5,0.253,756.8,01.16,0.508
2016-04-28 03:04:00,2027E-3,5C000400,-0724,0835,12157,028.7,045.5,0.254,756.8,01.16,0.508
2016-04-28 03:05:00,2003E-3,5C000400,-0724,0836,12078,028.7,045.5,0.254,756.8,01.16,0.508
2016-04-28 03:06:00,2035E-3,5C000400,-0724,0836,12282,028.8,045.5,0.253,756.7,01.16,0.508
2016-04-28 03:07:00,2048E-3,5C000400,-0724,0835,12067,028.8,045.5,0.254,756.7,01.16,0.508
2016-04-28 03:08:00,1867E-3,5C000400,-0724,0836,11978,028.8,045.5,0.254,756.7,01.16,0.508
2016-04-28 03:09:00,1873E-3,5C000400,-0724,0835,12044,028.7,045.5,0.254,756.7,01.16,0.508
2016-04-28 03:10:00,2032E-3,5C000400,-0724,0835,12045,028.8,045.5,0.254,756.7,01.16,0.508
2016-04-28 03:11:00,2048E-3,5C000400,-0724,0835,12043,028.8,045.4,0.254,756.8,01.16,0.508
2016-04-28 03:12:00,1954E-3,5C000400,-0724,0836,12170,028.8,045.5,0.254,756.8,01.16,0.508
2016-04-28 03:13:00,1896E-3,5C000400,-0724,0835,12191,028.8,045.5,0.254,756.7,01.16,0.508
2016-04-28 03:14:00,1932E-3,5C000400,-0724,0835,12139,028.8,045.5,0.253,756.8,01.16,0.508
2016-04-28 03:15:00,2014E-3,5C000400,-0724,0835,11996,028.8,045.5,0.254,756.8,01.16,0.508
2016-04-28 03:16:00,1944E-3,5C000400,-0724,0835,12214,028.8,045.4,0.254,756.8,01.16,0.508
2016-04-28 03:17:00,1809E-3,5C000400,-0724,0835,12053,028.8,045.5,0.253,756.7,01.16,0.508
2016-04-28 03:18:00,2078E-3,5C000400,-0724,0835,12013,028.8,045.4,0.254,756.7,01.16,0.508
2016-04-28 03:19:00,2023E-3,5C000400,-0724,0835,12219,028.8,045.5,0.254,756.7,01.16,0.508
2016-04-28 03:20:00,2074E-3,5C000400,-0724,0835,12180,028.8,045.5,0.253,756.7,01.16,0.508
2016-04-28 03:21:00,1926E-3,5C000400,-0724,0835,12023,028.8,045.5,0.254,756.7,01.16,0.508
2016-04-28 03:22:00,1936E-3,5C000400,-0724,0836,11981,028.8,045.5,0.254,756.7,01.16,0.508
2016-04-28 03:23:00,1939E-3,5C000400,-0724,0835,12115,028.8,045.5,0.253,756.7,01.16,0.508
2016-04-28 03:24:00,2102E-3,5C000400,-0724,0836,12181,028.8,045.5,0.254,756.7,01.16,0.508
2016-04-28 03:25:00,2001E-3,5C000400,-0724,0835,12026,028.8,045.5,0.254,756.7,01.16,0.508
2016-04-28 03:26:00,1966E-3,5C000400,-0724,0835,12131,028.8,045.4,0.253,756.7,01.16,0.508
2016-04-28 03:27:00,2024E-3,5C000400,-0724,0836,12124,028.8,045.5,0.254,756.7,01.16,0.508
2016-04-28 03:28:00,2015E-3,5C000400,-0724,0835,12128,028.8,045.5,0.254,756.7,01.16,0.508
2016-04-28 03:29:00,1997E-3,5C000400,-0724,0835,12261,028.8,045.5,0.253,756.7,01.16,0.508
2016-04-28 03:30:00,1991E-3,5C000400,-0724,0836,12085,028.8,045.5,0.254,756.7,01.16,0.508
2016-04-28 03:31:00,1871E-3,5C000400,-0724,0835,12194,028.8,045.5,0.254,756.7,01.16,0.508
2016-04-28 03:32:00,1994E-3,5C000400,-0724,0836,12184,028.8,045.5,0.254,756.7,01.16,0.508
2016-04-28 03:33:00,1903E-3,5C000400,-0724,0835,12258,028.8,045.5,0.254,756.7,01.16,0.508
2016-04-28 03:34:00,1995E-3,5C000400,-0724,0836,12206,028.8,045.5,0.254,756.7,01.16,0.508
2016-04-28 03:35:00,1898E-3,5C000400,-0724,0835,12162,028.8,045.5,0.254,756.7,01.16,0.508
2016-04-28 03:36:00,1779E-3,5C000400,-0724,0836,12062,028.8,045.5,0.253,756.7,01.16,0.508
2016-04-28 03:37:00,1962E-3,5C000400,-0724,0836,12163,028.8,045.5,0.254,756.7,01.16,0.508
2016-04-28 03:38:00,1934E-3,5C000400,-0724,0836,12230,028.8,045.5,0.254,756.7,01.16,0.508
2016-04-28 03:39:00,1998E-3,5C000400,-0724,0835,12177,028.8,045.5,0.253,756.7,01.16,0.508
2016-04-28 03:40:00,1795E-3,5C000400,-0724,0835,12192,028.8,045.5,0.254,756.7,01.16,0.508
2016-04-28 03:41:00,1869E-3,5C000400,-0724,0836,12167,028.8,045.5,0.254,756.6,01.16,0.508
2016-04-28 03:42:00,1866E-3,5C000400,-0724,0836,12241,028.8,045.4,0.253,756.6,01.16,0.508
2016-04-28 03:43:00,1898E-3,5C000400,-0724,0835,12145,028.8,045.4,0.254,756.6,01.16,0.508
2016-04-28 03:44:00,1908E-3,5C000400,-0724,0835,12113,028.8,045.4,0.254,756.6,01.16,0.508
2016-04-28 03:45:00,1928E-3,5C000400,-0724,0835,12068,028.8,045.4,0.253,756.6,01.16,0.508
2016-04-28 03:46:00,1862E-3,5C000400,-0724,0835,12217,028.8,045.4,0.254,756.6,01.16,0.508
2016-04-28 03:47:00,1839E-3,5C000400,-0724,0836,12212,028.8,045.5,0.254,756.6,01.16,0.508
2016-04-28 03:48:00,2084E-3,5C000400,-0724,0835,12158,028.8,045.5,0.253,756.6,01.16,0.508
2016-04-28 03:49:00,1904E-3,5C000400,-0724,0836,12137,028.8,045.4,0.254,756.6,01.16,0.508
2016-04-28 03:50:00,2080E-3,5C000400,-0724,0835,12115,028.8,045.5,0.254,756.6,01.16,0.508
2016-04-28 03:51:00,2056E-3,5C000400,-0724,0835,12183,028.8,045.5,0.254,756.6,01.16,0.508
2016-04-28 03:52:00,1906E-3,5C000400,-0724,0836,12245,028.8,045.4,0.254,756.6,01.16,0.508
2016-04-28 03:53:00,1918E-3,5C000400,-0724,0836,12322,028.8,045.5,0.254,756.6,01.16,0.508
2016-04-28 03:54:00,1901E-3,5C000400,-0724,0836,12203,028.8,045.5,0.254,756.6,01.16,0.508
2016-04-28 03:55:00,1913E-3,5C000400,-0724,0835,12134,028.8,045.4,0.253,756.6,01.16,0.508
2016-04-28 03:56:00,1969E-3,5C000400,-0724,0835,12084,028.8,045.5,0.254,756.6,01.16,0.508
2016-04-28 03:57:00,2026E-3,5C000400,-0724,0835,12129,028.8,045.5,0.254,756.6,01.16,0.508
2016-04-28 03:58:00,1940E-3,5C000400,-0724,0835,12185,028.8,045.5,0.253,756.6,01.16,0.508
2016-04-28 03:59:00,1911E-3,5C000400,-0724,0836,12152,028.8,045.5,0.254,756.6,01.16,0.508
2016-04-28 04:00:00,2007E-3,5C000400,-0724,0835,12142,028.8,045.5,0.254,756.6,01.16,0.508
2016-04-28 04:01:00,1969E-3,5C000400,-0724,0836,12017,028.8,045.5,0.254,756.6,01.16,0.508
2016-04-28 04:02:00,1876E-3,5C000400,-0724,0836,12031,028.8,045.5,0.254,756.6,01.16,0.508
2016-04-28 04:03:00,2007E-3,5C000400,-0724,0835,12096,028.8,045.4,0.254,756.6,01.16,0.508
2016-04-28 04:04:00,1889E-3,5C000400,-0724,0835,12187,028.8,045.5,0.254,756.5,01.16,0.508
2016-04-28 04:05:00,1988E-3,5C000400,-0724,0835,12149,028.8,045.5,0.253,756.5,01.16,0.508
2016-04-28 04:06:00,2028E-3,5C000400,-0724,0835,12052,028.8,045.5,0.254,756.5,01.16,0.508
2016-04-28 04:07:00,1878E-3,5C000400,-0724,0835,12101,028.8,045.5,0.254,756.5,01.16,0.508
2016-04-28 04:08:00,1840E-3,5C000400,-0724,0836,12208,028.8,045.5,0.254,756.5,01.16,0.508
2016-04-28 04:09:00,1920E-3,5C000400,-0724,0836,12100,028.8,045.4,0.254,756.5,01.16,0.508
2016-04-28 04:10:00,1994E-3,5C000400,-0724,0835,12242,028.8,045.4,0.254,756.5,01.16,0.508
2016-04-28 04:11:00,1917E-3,5C000400,-0724,0836,12179,028.8,045.5,0.254,756.5,01.16,0.508
2016-04-28 04:12:00,1920E-3,5C000400,-0724,0835,12031,028.8,045.5,0.253,756.6,01.16,0.508
2016-04-28 04:13:00,1994E-3,5C000400,-0724,0836,12012,028.8,045.5,0.254,756.5,01.16,0.508
2016-04-28 04:14:00,1963E-3,5C000400,-0724,0835,12077,028.8,045.4,0.254,756.5,01.16,0.508
2016-04-28 04:15:00,1911E-3,5C000400,-0724,0835,11964,028.8,045.5,0.253,756.5,01.16,0.508
2016-04-28 04:16:00,1963E-3,5C000400,-0724,0835,12118,028.8,045.5,0.254,756.5,01.16,0.508
2016-04-28 04:17:00,1861E-3,5C000400,-0724,0836,12189,028.8,045.5,0.254,756.5,01.16,0.508
2016-04-28 04:18:00,1876E-3,5C000400,-0724,0835,12214,028.8,045.5,0.253,756.5,01.16,0.508
2016-04-28 04:19:00,1838E-3,5C000400,-0724,0835,12133,028.8,045.5,0.254,756.5,01.16,0.508
2016-04-28 04:20:00,1968E-3,5C000400,-0724,0835,12250,028.8,045.5,0.254,756.5,01.16,0.508